Time,TemperatureF,DewpointF,PressureIn,WindDirection,WindDirectionDegrees,WindSpeedMPH,WindSpeedGustMPH,Humidity,HourlyPrecipIn,Conditions,Clouds,dailyrainin,SoftwareType,DateUTC
2013-03-15 19:49:00,69.4,58.8,29.99,SSE,155,14.0,14.0,69,0.00,,---,0.00,VWS V14.00,2013-03-16 00:49:00,
2013-03-15 19:52:00,69.4,58.8,29.99,SSE,155,14.0,14.0,69,0.00,,---,0.00,VWS V14.00,2013-03-16 00:52:00,
2013-03-15 19:53:00,69.3,58.7,29.99,SSE,161,18.0,18.0,69,0.00,,---,0.00,VWS V14.00,2013-03-16 00:53:00,
2013-03-15 19:54:00,69.2,58.6,29.99,South,171,12.0,14.0,69,0.00,,---,0.00,VWS V14.00,2013-03-16 00:54:00,
2013-03-15 19:55:00,69.2,58.6,29.99,SSE,159,10.0,20.0,69,0.00,,---,0.00,VWS V14.00,2013-03-16 00:55:00,
2013-03-15 19:56:00,69.2,58.6,29.99,SSE,158,11.0,16.0,69,0.00,,---,0.00,VWS V14.00,2013-03-16 00:56:00,
2013-03-15 19:57:00,69.2,58.6,29.99,South,177,21.0,21.0,69,0.00,,---,0.00,VWS V14.00,2013-03-16 00:57:00,
2013-03-15 19:58:00,69.1,58.5,29.99,South,173,20.0,23.0,69,0.00,,---,0.00,VWS V14.00,2013-03-16 00:58:00,
2013-03-15 19:59:00,69.0,58.4,29.98,South,169,17.0,21.0,69,0.00,,---,0.00,VWS V14.00,2013-03-16 00:59:00,
2013-03-15 20:00:00,69.1,58.9,29.99,SSE,153,16.0,19.0,70,0.00,,---,0.00,VWS V14.00,2013-03-16 01:00:00,
2013-03-15 20:01:00,69.0,58.4,29.98,SSE,161,16.0,19.0,69,0.00,,---,0.00,VWS V14.00,2013-03-16 01:01:00,
2013-03-15 20:02:00,69.0,58.4,29.98,SSE,167,15.0,21.0,69,0.00,,---,0.00,VWS V14.00,2013-03-16 01:02:00,
2013-03-15 20:03:00,69.0,58.4,29.99,SSE,156,16.0,16.0,69,0.00,,---,0.00,VWS V14.00,2013-03-16 01:03:00,
2013-03-15 20:04:00,68.9,58.7,29.99,SSE,161,11.0,20.0,70,0.00,,---,0.00,VWS V14.00,2013-03-16 01:04:00,
2013-03-15 20:05:00,68.9,58.7,29.99,SSE,155,11.0,20.0,70,0.00,,---,0.00,VWS V14.00,2013-03-16 01:05:00,
2013-03-15 20:06:00,68.9,58.7,29.99,South,180,17.0,21.0,70,0.00,,---,0.00,VWS V14.00,2013-03-16 01:06:00,
2013-03-15 20:07:00,68.9,58.7,29.99,SSE,154,12.0,20.0,70,0.00,,---,0.00,VWS V14.00,2013-03-16 01:07:00,
2013-03-15 20:08:00,68.9,58.7,29.99,SSE,150,16.0,21.0,70,0.00,,---,0.00,VWS V14.00,2013-03-16 01:08:00,
2013-03-15 20:09:00,68.8,58.6,29.99,SSE,153,15.0,18.0,70,0.00,,---,0.00,VWS V14.00,2013-03-16 01:09:00,
2013-03-15 20:10:00,68.8,58.6,29.99,SSE,165,16.0,18.0,70,0.00,,---,0.00,VWS V14.00,2013-03-16 01:10:00,
2013-03-15 20:11:00,68.8,58.6,29.99,SSE,168,16.0,21.0,70,0.00,,---,0.00,VWS V14.00,2013-03-16 01:11:00,
2013-03-15 20:12:00,68.8,58.6,29.99,SSE,156,16.0,18.0,70,0.00,,---,0.00,VWS V14.00,2013-03-16 01:12:00,
2013-03-15 20:13:00,68.8,58.6,29.99,SSE,166,14.0,19.0,70,0.00,,---,0.00,VWS V14.00,2013-03-16 01:13:00,
2013-03-15 20:14:00,68.7,58.5,29.99,SSE,159,15.0,17.0,70,0.00,,---,0.00,VWS V14.00,2013-03-16 01:14:00,
2013-03-15 20:15:00,68.8,58.6,29.99,SSE,166,14.0,20.0,70,0.00,,---,0.00,VWS V14.00,2013-03-16 01:15:00,
2013-03-15 20:16:00,68.7,58.5,29.99,SSE,162,17.0,17.0,70,0.00,,---,0.00,VWS V14.00,2013-03-16 01:16:00,
2013-03-15 20:17:00,68.6,58.8,29.99,SSE,164,13.0,17.0,71,0.00,,---,0.00,VWS V14.00,2013-03-16 01:17:00,
2013-03-15 20:18:00,68.6,58.8,29.99,SSE,157,17.0,20.0,71,0.00,,---,0.00,VWS V14.00,2013-03-16 01:18:00,
2013-03-15 20:19:00,68.5,58.7,29.98,South,181,13.0,19.0,71,0.00,,---,0.00,VWS V14.00,2013-03-16 01:19:00,
2013-03-15 20:20:00,68.5,58.7,29.99,South,174,17.0,20.0,71,0.00,,---,0.00,VWS V14.00,2013-03-16 01:20:00,
2013-03-15 20:21:00,68.5,58.7,29.98,South,169,19.0,19.0,71,0.00,,---,0.00,VWS V14.00,2013-03-16 01:21:00,
2013-03-15 20:22:00,68.5,58.7,29.98,South,170,18.0,19.0,71,0.00,,---,0.00,VWS V14.00,2013-03-16 01:22:00,
2013-03-15 20:23:00,68.5,58.7,29.99,SSE,161,15.0,19.0,71,0.00,,---,0.00,VWS V14.00,2013-03-16 01:23:00,
2013-03-15 20:24:00,68.3,58.5,29.99,South,178,17.0,23.0,71,0.00,,---,0.00,VWS V14.00,2013-03-16 01:24:00,
2013-03-15 20:25:00,68.4,58.6,29.99,SSE,157,17.0,20.0,71,0.00,,---,0.00,VWS V14.00,2013-03-16 01:25:00,
2013-03-15 20:26:00,68.4,58.6,29.99,SSE,167,16.0,18.0,71,0.00,,---,0.00,VWS V14.00,2013-03-16 01:26:00,
2013-03-15 20:27:00,68.3,58.5,29.99,SSE,161,16.0,23.0,71,0.00,,---,0.00,VWS V14.00,2013-03-16 01:27:00,
2013-03-15 20:28:00,68.3,58.9,29.98,SSE,156,19.0,19.0,72,0.00,,---,0.00,VWS V14.00,2013-03-16 01:28:00,
2013-03-15 20:29:00,68.4,59.0,29.98,SSE,159,16.0,20.0,72,0.00,,---,0.00,VWS V14.00,2013-03-16 01:29:00,
2013-03-15 20:30:00,68.4,59.0,29.98,SSE,167,21.0,23.0,72,0.00,,---,0.00,VWS V14.00,2013-03-16 01:30:00,
2013-03-15 20:31:00,68.4,59.0,29.98,South,169,16.0,22.0,72,0.00,,---,0.00,VWS V14.00,2013-03-16 01:31:00,
2013-03-15 20:32:00,68.4,59.0,29.98,South,175,17.0,20.0,72,0.00,,---,0.00,VWS V14.00,2013-03-16 01:32:00,
2013-03-15 20:33:00,68.3,58.9,29.98,SSE,164,16.0,19.0,72,0.00,,---,0.00,VWS V14.00,2013-03-16 01:33:00,
2013-03-15 20:34:00,68.2,59.2,29.98,South,169,16.0,20.0,73,0.00,,---,0.00,VWS V14.00,2013-03-16 01:34:00,
2013-03-15 20:35:00,68.3,58.9,29.99,SSE,157,14.0,19.0,72,0.00,,---,0.00,VWS V14.00,2013-03-16 01:35:00,
2013-03-15 20:36:00,68.3,58.9,29.98,SSE,148,19.0,19.0,72,0.00,,---,0.00,VWS V14.00,2013-03-16 01:36:00,
2013-03-15 20:37:00,68.2,59.2,29.98,South,169,15.0,20.0,73,0.00,,---,0.00,VWS V14.00,2013-03-16 01:37:00,
2013-03-15 20:38:00,68.2,59.2,29.98,SSE,155,18.0,21.0,73,0.00,,---,0.00,VWS V14.00,2013-03-16 01:38:00,
2013-03-15 20:39:00,68.1,59.1,29.99,SSE,163,15.0,17.0,73,0.00,,---,0.00,VWS V14.00,2013-03-16 01:39:00,
2013-03-15 20:40:00,68.2,59.2,29.99,SSE,163,17.0,19.0,73,0.00,,---,0.00,VWS V14.00,2013-03-16 01:40:00,
2013-03-15 20:41:00,68.2,59.2,29.99,SSE,158,14.0,18.0,73,0.00,,---,0.00,VWS V14.00,2013-03-16 01:41:00,
2013-03-15 20:42:00,68.1,59.1,29.99,SSE,165,21.0,21.0,73,0.00,,---,0.00,VWS V14.00,2013-03-16 01:42:00,
2013-03-15 20:43:00,68.2,59.2,29.98,SSE,153,19.0,21.0,73,0.00,,---,0.00,VWS V14.00,2013-03-16 01:43:00,
2013-03-15 20:44:00,68.1,59.5,29.99,SSE,155,13.0,21.0,74,0.00,,---,0.00,VWS V14.00,2013-03-16 01:44:00,
2013-03-15 20:45:00,68.2,59.6,29.99,SSE,159,18.0,21.0,74,0.00,,---,0.00,VWS V14.00,2013-03-16 01:45:00,
2013-03-15 20:46:00,68.1,59.5,29.99,SSE,166,19.0,22.0,74,0.00,,---,0.00,VWS V14.00,2013-03-16 01:46:00,
2013-03-15 20:47:00,68.1,59.5,29.99,SSE,162,13.0,21.0,74,0.00,,---,0.00,VWS V14.00,2013-03-16 01:47:00,
2013-03-15 20:48:00,68.1,59.5,29.99,SSE,150,20.0,22.0,74,0.00,,---,0.00,VWS V14.00,2013-03-16 01:48:00,
2013-03-15 20:49:00,68.1,59.5,29.99,SSE,159,17.0,20.0,74,0.00,,---,0.00,VWS V14.00,2013-03-16 01:49:00,
2013-03-15 20:50:00,68.1,59.5,29.99,South,182,15.0,20.0,74,0.00,,---,0.00,VWS V14.00,2013-03-16 01:50:00,
2013-03-15 20:51:00,68.1,59.5,29.99,SSE,157,15.0,20.0,74,0.00,,---,0.00,VWS V14.00,2013-03-16 01:51:00,
2013-03-15 20:52:00,68.1,59.5,29.99,South,169,18.0,20.0,74,0.00,,---,0.00,VWS V14.00,2013-03-16 01:52:00,
2013-03-15 20:53:00,68.1,59.5,29.99,SSE,161,13.0,20.0,74,0.00,,---,0.00,VWS V14.00,2013-03-16 01:53:00,
2013-03-15 20:54:00,67.9,59.3,29.99,SSE,163,15.0,18.0,74,0.00,,---,0.00,VWS V14.00,2013-03-16 01:54:00,
2013-03-15 20:55:00,68.0,59.4,29.99,SSE,166,18.0,19.0,74,0.00,,---,0.00,VWS V14.00,2013-03-16 01:55:00,
2013-03-15 20:56:00,67.9,59.3,29.99,SSE,167,11.0,18.0,74,0.00,,---,0.00,VWS V14.00,2013-03-16 01:56:00,
2013-03-15 20:57:00,67.9,59.3,29.99,SSE,165,16.0,18.0,74,0.00,,---,0.00,VWS V14.00,2013-03-16 01:57:00,
2013-03-15 20:58:00,67.9,59.3,29.99,SSE,162,15.0,19.0,74,0.00,,---,0.00,VWS V14.00,2013-03-16 01:58:00,
2013-03-15 20:59:00,67.8,59.2,29.99,South,171,15.0,19.0,74,0.00,,---,0.00,VWS V14.00,2013-03-16 01:59:00,
2013-03-15 21:00:00,67.8,59.2,29.99,South,172,12.0,17.0,74,0.00,,---,0.00,VWS V14.00,2013-03-16 02:00:00,
2013-03-15 21:01:00,67.8,59.2,29.99,South,170,17.0,19.0,74,0.00,,---,0.00,VWS V14.00,2013-03-16 02:01:00,
2013-03-15 21:02:00,67.8,59.2,29.99,South,169,13.0,19.0,74,0.00,,---,0.00,VWS V14.00,2013-03-16 02:02:00,
2013-03-15 21:03:00,67.7,59.1,29.99,South,177,13.0,22.0,74,0.00,,---,0.00,VWS V14.00,2013-03-16 02:03:00,
2013-03-15 21:04:00,67.8,59.2,29.99,SSE,158,22.0,23.0,74,0.00,,---,0.00,VWS V14.00,2013-03-16 02:04:00,
2013-03-15 21:05:00,67.8,59.2,29.99,South,178,15.0,17.0,74,0.00,,---,0.00,VWS V14.00,2013-03-16 02:05:00,
2013-03-15 21:06:00,67.8,59.6,29.99,SSE,161,16.0,19.0,75,0.00,,---,0.00,VWS V14.00,2013-03-16 02:06:00,
2013-03-15 21:07:00,67.8,59.2,29.99,SSE,155,22.0,23.0,74,0.00,,---,0.00,VWS V14.00,2013-03-16 02:07:00,
2013-03-15 21:08:00,67.8,59.6,29.99,South,174,19.0,22.0,75,0.00,,---,0.00,VWS V14.00,2013-03-16 02:08:00,
2013-03-15 21:09:00,67.7,59.1,29.99,South,172,15.0,18.0,74,0.00,,---,0.00,VWS V14.00,2013-03-16 02:09:00,
2013-03-15 21:10:00,67.8,59.2,29.99,South,176,16.0,22.0,74,0.00,,---,0.00,VWS V14.00,2013-03-16 02:10:00,
2013-03-15 21:11:00,67.7,59.1,29.99,SSE,158,18.0,18.0,74,0.00,,---,0.00,VWS V14.00,2013-03-16 02:11:00,
2013-03-15 21:12:00,67.7,59.1,29.99,South,170,14.0,18.0,74,0.00,,---,0.00,VWS V14.00,2013-03-16 02:12:00,
2013-03-15 21:13:00,67.7,59.1,29.99,South,169,14.0,20.0,74,0.00,,---,0.00,VWS V14.00,2013-03-16 02:13:00,
2013-03-15 21:14:00,67.6,59.4,29.99,SSE,165,17.0,20.0,75,0.00,,---,0.00,VWS V14.00,2013-03-16 02:14:00,
2013-03-15 21:15:00,67.7,59.5,29.99,SSE,165,13.0,18.0,75,0.00,,---,0.00,VWS V14.00,2013-03-16 02:15:00,
2013-03-15 21:16:00,67.6,59.4,29.99,South,180,13.0,17.0,75,0.00,,---,0.00,VWS V14.00,2013-03-16 02:16:00,
2013-03-15 21:17:00,67.6,59.4,29.99,South,170,16.0,20.0,75,0.00,,---,0.00,VWS V14.00,2013-03-16 02:17:00,
2013-03-15 21:18:00,67.5,59.3,29.99,SSE,165,18.0,18.0,75,0.00,,---,0.00,VWS V14.00,2013-03-16 02:18:00,
2013-03-15 21:19:00,67.7,59.5,29.99,SSE,153,18.0,21.0,75,0.00,,---,0.00,VWS V14.00,2013-03-16 02:19:00,
2013-03-15 21:20:00,67.6,59.4,29.99,SSE,157,15.0,22.0,75,0.00,,---,0.00,VWS V14.00,2013-03-16 02:20:00,
2013-03-15 21:21:00,67.7,59.5,29.99,South,172,13.0,21.0,75,0.00,,---,0.00,VWS V14.00,2013-03-16 02:21:00,
2013-03-15 21:22:00,67.7,59.5,29.99,SSE,151,17.0,21.0,75,0.00,,---,0.00,VWS V14.00,2013-03-16 02:22:00,
2013-03-15 21:23:00,67.7,59.5,29.99,SSE,168,17.0,21.0,75,0.00,,---,0.00,VWS V14.00,2013-03-16 02:23:00,
2013-03-15 21:24:00,67.6,59.4,29.99,SSE,166,17.0,21.0,75,0.00,,---,0.00,VWS V14.00,2013-03-16 02:24:00,
2013-03-15 21:25:00,67.6,59.4,29.99,SSE,157,20.0,21.0,75,0.00,,---,0.00,VWS V14.00,2013-03-16 02:25:00,
2013-03-15 21:26:00,67.6,59.4,30.00,SSE,168,21.0,21.0,75,0.00,,---,0.00,VWS V14.00,2013-03-16 02:26:00,
2013-03-15 21:27:00,67.6,59.4,29.99,SSE,166,17.0,21.0,75,0.00,,---,0.00,VWS V14.00,2013-03-16 02:27:00,
2013-03-15 21:28:00,67.6,59.4,30.00,South,173,18.0,21.0,75,0.00,,---,0.00,VWS V14.00,2013-03-16 02:28:00,
2013-03-15 21:29:00,67.5,59.3,30.00,South,184,19.0,19.0,75,0.00,,---,0.00,VWS V14.00,2013-03-16 02:29:00,
2013-03-15 21:30:00,67.6,59.4,30.00,South,175,17.0,20.0,75,0.00,,---,0.00,VWS V14.00,2013-03-16 02:30:00,
2013-03-15 21:31:00,67.5,59.3,30.00,South,176,12.0,22.0,75,0.00,,---,0.00,VWS V14.00,2013-03-16 02:31:00,
2013-03-15 21:32:00,67.5,59.3,30.00,South,184,19.0,19.0,75,0.00,,---,0.00,VWS V14.00,2013-03-16 02:32:00,
2013-03-15 21:33:00,67.6,59.8,30.00,South,171,19.0,24.0,76,0.00,,---,0.00,VWS V14.00,2013-03-16 02:33:00,
2013-03-15 21:34:00,67.6,59.8,30.00,SSE,162,18.0,20.0,76,0.00,,---,0.00,VWS V14.00,2013-03-16 02:34:00,
2013-03-15 21:35:00,67.6,59.8,30.00,South,176,18.0,22.0,76,0.00,,---,0.00,VWS V14.00,2013-03-16 02:35:00,
2013-03-15 21:36:00,67.6,59.8,30.00,SSE,167,19.0,21.0,76,0.00,,---,0.00,VWS V14.00,2013-03-16 02:36:00,
2013-03-15 21:37:00,67.6,59.8,30.00,SSE,162,18.0,20.0,76,0.00,,---,0.00,VWS V14.00,2013-03-16 02:37:00,
2013-03-15 21:38:00,67.6,59.8,30.00,SSE,162,17.0,20.0,76,0.00,,---,0.00,VWS V14.00,2013-03-16 02:38:00,
2013-03-15 21:39:00,67.5,59.7,30.00,SSE,161,17.0,23.0,76,0.00,,---,0.00,VWS V14.00,2013-03-16 02:39:00,
2013-03-15 21:40:00,67.5,59.7,30.00,South,178,16.0,22.0,76,0.00,,---,0.00,VWS V14.00,2013-03-16 02:40:00,
2013-03-15 21:41:00,67.5,59.7,30.00,SSE,165,16.0,20.0,76,0.00,,---,0.00,VWS V14.00,2013-03-16 02:41:00,
2013-03-15 21:42:00,67.5,59.7,30.00,SSE,161,17.0,23.0,76,0.00,,---,0.00,VWS V14.00,2013-03-16 02:42:00,
2013-03-15 21:43:00,67.4,59.6,30.00,South,169,15.0,20.0,76,0.00,,---,0.00,VWS V14.00,2013-03-16 02:43:00,
2013-03-15 21:44:00,67.3,59.5,30.00,South,179,20.0,20.0,76,0.00,,---,0.00,VWS V14.00,2013-03-16 02:44:00,
2013-03-15 21:45:00,67.5,59.7,30.00,South,172,18.0,21.0,76,0.00,,---,0.00,VWS V14.00,2013-03-16 02:45:00,
2013-03-15 21:46:00,67.4,59.6,30.00,South,169,16.0,19.0,76,0.00,,---,0.00,VWS V14.00,2013-03-16 02:46:00,
2013-03-15 21:47:00,67.3,59.5,30.00,South,179,20.0,20.0,76,0.00,,---,0.00,VWS V14.00,2013-03-16 02:47:00,
2013-03-15 21:48:00,67.4,59.6,30.00,South,169,15.0,20.0,76,0.00,,---,0.00,VWS V14.00,2013-03-16 02:48:00,
2013-03-15 21:49:00,67.2,59.4,30.00,SSE,163,18.0,18.0,76,0.00,,---,0.00,VWS V14.00,2013-03-16 02:49:00,
2013-03-15 21:50:00,67.3,59.5,30.00,SSE,155,19.0,19.0,76,0.00,,---,0.00,VWS V14.00,2013-03-16 02:50:00,
2013-03-15 21:51:00,67.2,59.4,30.00,South,169,16.0,19.0,76,0.00,,---,0.00,VWS V14.00,2013-03-16 02:51:00,
2013-03-15 21:52:00,67.2,59.4,30.00,South,173,18.0,18.0,76,0.00,,---,0.00,VWS V14.00,2013-03-16 02:52:00,
2013-03-15 21:53:00,67.2,59.4,30.00,SSE,163,15.0,19.0,76,0.00,,---,0.00,VWS V14.00,2013-03-16 02:53:00,
2013-03-15 21:54:00,67.1,59.3,30.00,South,171,19.0,19.0,76,0.00,,---,0.00,VWS V14.00,2013-03-16 02:54:00,
2013-03-15 21:55:00,67.2,59.8,30.00,SSE,167,18.0,21.0,77,0.00,,---,0.00,VWS V14.00,2013-03-16 02:55:00,
2013-03-15 21:56:00,67.2,59.4,30.00,SSE,163,16.0,18.0,76,0.00,,---,0.00,VWS V14.00,2013-03-16 02:56:00,
2013-03-15 21:57:00,67.1,59.3,30.00,South,171,19.0,19.0,76,0.00,,---,0.00,VWS V14.00,2013-03-16 02:57:00,
2013-03-15 21:58:00,67.1,59.7,30.00,South,173,14.0,19.0,77,0.00,,---,0.00,VWS V14.00,2013-03-16 02:58:00,
2013-03-15 21:59:00,67.1,59.7,30.00,South,169,13.0,21.0,77,0.00,,---,0.00,VWS V14.00,2013-03-16 02:59:00,
2013-03-15 22:00:00,67.0,59.2,30.00,SSE,158,13.0,18.0,76,0.00,,---,0.00,VWS V14.00,2013-03-16 03:00:00,
2013-03-15 22:01:00,67.1,59.7,30.00,SSE,167,14.0,19.0,77,0.00,,---,0.00,VWS V14.00,2013-03-16 03:01:00,
2013-03-15 22:02:00,67.1,59.7,30.00,South,169,13.0,21.0,77,0.00,,---,0.00,VWS V14.00,2013-03-16 03:02:00,
2013-03-15 22:03:00,67.1,59.7,30.00,SSE,166,15.0,18.0,77,0.00,,---,0.00,VWS V14.00,2013-03-16 03:03:00,
2013-03-15 22:04:00,67.0,59.6,30.00,South,171,17.0,18.0,77,0.00,,---,0.00,VWS V14.00,2013-03-16 03:04:00,
2013-03-15 22:05:00,67.0,59.6,30.00,South,178,16.0,21.0,77,0.00,,---,0.00,VWS V14.00,2013-03-16 03:05:00,
2013-03-15 22:06:00,67.0,59.6,30.00,South,178,14.0,17.0,77,0.00,,---,0.00,VWS V14.00,2013-03-16 03:06:00,
2013-03-15 22:07:00,67.0,59.6,30.00,South,171,17.0,18.0,77,0.00,,---,0.00,VWS V14.00,2013-03-16 03:07:00,
2013-03-15 22:08:00,67.0,59.6,30.00,South,173,16.0,21.0,77,0.00,,---,0.00,VWS V14.00,2013-03-16 03:08:00,
2013-03-15 22:09:00,67.0,59.6,30.01,SSE,161,12.0,17.0,77,0.00,,---,0.00,VWS V14.00,2013-03-16 03:09:00,
2013-03-15 22:10:00,67.0,59.6,30.00,SSE,163,17.0,17.0,77,0.00,,---,0.00,VWS V14.00,2013-03-16 03:10:00,
2013-03-15 22:11:00,67.0,59.6,30.01,South,177,15.0,21.0,77,0.00,,---,0.00,VWS V14.00,2013-03-16 03:11:00,
2013-03-15 22:12:00,67.0,59.6,30.01,SSE,161,12.0,17.0,77,0.00,,---,0.00,VWS V14.00,2013-03-16 03:12:00,
2013-03-15 22:13:00,67.0,59.6,30.01,SSE,167,17.0,20.0,77,0.00,,---,0.00,VWS V14.00,2013-03-16 03:13:00,
2013-03-15 22:14:00,67.0,59.6,30.01,South,171,20.0,20.0,77,0.00,,---,0.00,VWS V14.00,2013-03-16 03:14:00,
2013-03-15 22:15:00,67.0,59.6,30.00,South,175,13.0,19.0,77,0.00,,---,0.00,VWS V14.00,2013-03-16 03:15:00,
2013-03-15 22:16:00,67.0,59.6,30.01,South,173,18.0,20.0,77,0.00,,---,0.00,VWS V14.00,2013-03-16 03:16:00,
2013-03-15 22:17:00,67.0,59.6,30.01,South,171,20.0,20.0,77,0.00,,---,0.00,VWS V14.00,2013-03-16 03:17:00,
2013-03-15 22:18:00,67.0,59.6,30.00,South,177,15.0,20.0,77,0.00,,---,0.00,VWS V14.00,2013-03-16 03:18:00,
2013-03-15 22:19:00,67.0,59.6,30.01,South,177,15.0,21.0,77,0.00,,---,0.00,VWS V14.00,2013-03-16 03:19:00,
2013-03-15 22:20:00,67.1,59.7,30.01,SSE,160,22.0,22.0,77,0.00,,---,0.00,VWS V14.00,2013-03-16 03:20:00,
2013-03-15 22:21:00,67.1,59.7,30.01,South,179,19.0,23.0,77,0.00,,---,0.00,VWS V14.00,2013-03-16 03:21:00,
2013-03-15 22:22:00,67.0,59.6,30.01,South,177,15.0,21.0,77,0.00,,---,0.00,VWS V14.00,2013-03-16 03:22:00,
2013-03-15 22:23:00,66.9,59.5,30.01,South,170,16.0,19.0,77,0.00,,---,0.00,VWS V14.00,2013-03-16 03:23:00,
2013-03-15 22:24:00,66.9,59.8,30.01,South,180,16.0,19.0,78,0.00,,---,0.00,VWS V14.00,2013-03-16 03:24:00,
2013-03-15 22:25:00,67.0,59.9,30.01,South,175,17.0,22.0,78,0.00,,---,0.00,VWS V14.00,2013-03-16 03:25:00,
2013-03-15 22:26:00,67.0,59.9,30.01,South,175,18.0,18.0,78,0.00,,---,0.00,VWS V14.00,2013-03-16 03:26:00,
2013-03-15 22:27:00,66.9,59.8,30.01,South,180,16.0,19.0,78,0.00,,---,0.00,VWS V14.00,2013-03-16 03:27:00,
2013-03-15 22:28:00,66.9,59.8,30.01,South,176,21.0,21.0,78,0.00,,---,0.00,VWS V14.00,2013-03-16 03:28:00,
2013-03-15 22:29:00,66.8,59.7,30.00,South,175,18.0,20.0,78,0.00,,---,0.00,VWS V14.00,2013-03-16 03:29:00,
2013-03-15 22:30:00,66.9,59.8,30.00,South,182,14.0,17.0,78,0.00,,---,0.00,VWS V14.00,2013-03-16 03:30:00,
2013-03-15 22:31:00,66.8,59.7,30.01,South,180,21.0,21.0,78,0.00,,---,0.00,VWS V14.00,2013-03-16 03:31:00,
2013-03-15 22:32:00,66.8,59.7,30.00,South,175,18.0,20.0,78,0.00,,---,0.00,VWS V14.00,2013-03-16 03:32:00,
2013-03-15 22:33:00,66.8,59.7,30.01,South,180,17.0,21.0,78,0.00,,---,0.00,VWS V14.00,2013-03-16 03:33:00,
2013-03-15 22:34:00,66.7,59.6,30.01,South,174,18.0,18.0,78,0.00,,---,0.00,VWS V14.00,2013-03-16 03:34:00,
2013-03-15 22:35:00,66.8,59.7,30.01,South,184,10.0,20.0,78,0.00,,---,0.00,VWS V14.00,2013-03-16 03:35:00,
2013-03-15 22:36:00,66.8,59.7,30.01,South,171,15.0,20.0,78,0.00,,---,0.00,VWS V14.00,2013-03-16 03:36:00,
2013-03-15 22:37:00,66.7,59.6,30.01,South,174,18.0,18.0,78,0.00,,---,0.00,VWS V14.00,2013-03-16 03:37:00,
2013-03-15 22:38:00,66.7,59.6,30.01,South,182,15.0,21.0,78,0.00,,---,0.00,VWS V14.00,2013-03-16 03:38:00,
2013-03-15 22:39:00,66.7,59.6,30.01,South,175,13.0,18.0,78,0.00,,---,0.00,VWS V14.00,2013-03-16 03:39:00,
2013-03-15 22:40:00,66.8,59.7,30.01,SSE,167,15.0,16.0,78,0.00,,---,0.00,VWS V14.00,2013-03-16 03:40:00,
2013-03-15 22:41:00,66.7,59.6,30.01,South,172,18.0,19.0,78,0.00,,---,0.00,VWS V14.00,2013-03-16 03:41:00,
2013-03-15 22:42:00,66.7,59.6,30.01,South,175,13.0,18.0,78,0.00,,---,0.00,VWS V14.00,2013-03-16 03:42:00,
2013-03-15 22:43:00,66.7,59.6,30.01,SSE,161,18.0,18.0,78,0.00,,---,0.00,VWS V14.00,2013-03-16 03:43:00,
2013-03-15 22:44:00,66.6,59.5,30.01,South,173,16.0,19.0,78,0.00,,---,0.00,VWS V14.00,2013-03-16 03:44:00,
2013-03-15 22:45:00,66.6,59.5,30.01,South,175,14.0,17.0,78,0.00,,---,0.00,VWS V14.00,2013-03-16 03:45:00,
2013-03-15 22:46:00,66.6,59.5,30.01,South,180,16.0,17.0,78,0.00,,---,0.00,VWS V14.00,2013-03-16 03:46:00,
2013-03-15 22:47:00,66.6,59.5,30.01,South,173,16.0,19.0,78,0.00,,---,0.00,VWS V14.00,2013-03-16 03:47:00,
2013-03-15 22:48:00,66.7,60.0,30.01,South,175,18.0,18.0,79,0.00,,---,0.00,VWS V14.00,2013-03-16 03:48:00,
2013-03-15 22:49:00,66.7,60.0,30.01,South,180,11.0,17.0,79,0.00,,---,0.00,VWS V14.00,2013-03-16 03:49:00,
2013-03-15 22:50:00,66.7,60.0,30.01,South,175,17.0,19.0,79,0.00,,---,0.00,VWS V14.00,2013-03-16 03:50:00,
2013-03-15 22:51:00,66.7,60.0,30.01,South,171,16.0,18.0,79,0.00,,---,0.00,VWS V14.00,2013-03-16 03:51:00,
2013-03-15 22:52:00,66.7,60.0,30.01,South,180,11.0,17.0,79,0.00,,---,0.00,VWS V14.00,2013-03-16 03:52:00,
2013-03-15 22:53:00,66.6,59.9,30.01,South,172,15.0,16.0,79,0.00,,---,0.00,VWS V14.00,2013-03-16 03:53:00,
2013-03-15 22:54:00,66.3,59.6,30.01,South,169,12.0,16.0,79,0.00,,---,0.00,VWS V14.00,2013-03-16 03:54:00,
2013-03-15 22:55:00,66.5,59.8,30.01,South,171,11.0,16.0,79,0.00,,---,0.00,VWS V14.00,2013-03-16 03:55:00,
2013-03-15 22:56:00,66.4,59.7,30.01,South,190,11.0,15.0,79,0.00,,---,0.00,VWS V14.00,2013-03-16 03:56:00,
2013-03-15 22:57:00,66.3,59.6,30.01,South,169,12.0,16.0,79,0.00,,---,0.00,VWS V14.00,2013-03-16 03:57:00,
2013-03-15 22:58:00,66.3,59.6,30.01,South,177,16.0,16.0,79,0.00,,---,0.00,VWS V14.00,2013-03-16 03:58:00,
2013-03-15 22:59:00,66.4,59.7,30.01,South,175,15.0,15.0,79,0.00,,---,0.00,VWS V14.00,2013-03-16 03:59:00,
2013-03-15 23:00:00,66.4,59.7,30.01,South,175,13.0,16.0,79,0.00,,---,0.00,VWS V14.00,2013-03-16 04:00:00,
2013-03-15 23:01:00,66.4,59.7,30.01,South,173,14.0,20.0,79,0.00,,---,0.00,VWS V14.00,2013-03-16 04:01:00,
2013-03-15 23:02:00,66.4,59.7,30.01,South,175,15.0,15.0,79,0.00,,---,0.00,VWS V14.00,2013-03-16 04:02:00,
2013-03-15 23:03:00,66.4,59.7,30.01,South,176,15.0,18.0,79,0.00,,---,0.00,VWS V14.00,2013-03-16 04:03:00,
2013-03-15 23:04:00,66.3,59.6,30.01,South,171,12.0,15.0,79,0.00,,---,0.00,VWS V14.00,2013-03-16 04:04:00,
2013-03-15 23:05:00,66.3,59.6,30.01,South,178,16.0,17.0,79,0.00,,---,0.00,VWS V14.00,2013-03-16 04:05:00,
2013-03-15 23:06:00,66.3,59.6,30.01,South,170,14.0,17.0,79,0.00,,---,0.00,VWS V14.00,2013-03-16 04:06:00,
2013-03-15 23:07:00,66.3,59.6,30.00,South,178,10.0,15.0,79,0.00,,---,0.00,VWS V14.00,2013-03-16 04:07:00,
2013-03-15 23:08:00,66.3,59.6,30.01,South,173,13.0,17.0,79,0.00,,---,0.00,VWS V14.00,2013-03-16 04:08:00,
2013-03-15 23:09:00,66.3,59.6,30.01,South,174,12.0,15.0,79,0.00,,---,0.00,VWS V14.00,2013-03-16 04:09:00,
2013-03-15 23:10:00,66.2,59.5,30.01,South,171,14.0,14.0,79,0.00,,---,0.00,VWS V14.00,2013-03-16 04:10:00,
2013-03-15 23:11:00,66.2,59.5,30.00,South,169,13.0,17.0,79,0.00,,---,0.00,VWS V14.00,2013-03-16 04:11:00,
2013-03-15 23:12:00,66.2,59.5,30.01,South,178,13.0,16.0,79,0.00,,---,0.00,VWS V14.00,2013-03-16 04:12:00,
2013-03-15 23:13:00,66.2,59.5,30.01,South,175,19.0,19.0,79,0.00,,---,0.00,VWS V14.00,2013-03-16 04:13:00,
2013-03-15 23:14:00,66.2,59.5,30.00,South,182,10.0,19.0,79,0.00,,---,0.00,VWS V14.00,2013-03-16 04:14:00,
2013-03-15 23:15:00,66.2,59.5,30.00,South,184,11.0,15.0,79,0.00,,---,0.00,VWS V14.00,2013-03-16 04:15:00,
2013-03-15 23:16:00,66.1,59.4,30.00,South,171,13.0,17.0,79,0.00,,---,0.00,VWS V14.00,2013-03-16 04:16:00,
2013-03-15 23:17:00,66.1,59.4,30.00,South,184,12.0,18.0,79,0.00,,---,0.00,VWS V14.00,2013-03-16 04:17:00,
2013-03-15 23:18:00,66.1,59.4,30.00,South,181,13.0,15.0,79,0.00,,---,0.00,VWS V14.00,2013-03-16 04:18:00,
2013-03-15 23:19:00,66.1,59.4,30.00,South,173,17.0,17.0,79,0.00,,---,0.00,VWS V14.00,2013-03-16 04:19:00,
2013-03-15 23:20:00,66.1,59.8,30.00,South,174,16.0,16.0,80,0.00,,---,0.00,VWS V14.00,2013-03-16 04:20:00,
2013-03-15 23:21:00,66.1,59.4,30.00,South,178,16.0,16.0,79,0.00,,---,0.00,VWS V14.00,2013-03-16 04:21:00,
2013-03-15 23:22:00,66.1,59.4,30.00,South,186,10.0,18.0,79,0.00,,---,0.00,VWS V14.00,2013-03-16 04:22:00,
2013-03-15 23:23:00,66.1,59.8,30.00,South,182,14.0,17.0,80,0.00,,---,0.00,VWS V14.00,2013-03-16 04:23:00,
2013-03-15 23:24:00,66.1,59.8,30.00,South,176,11.0,14.0,80,0.00,,---,0.00,VWS V14.00,2013-03-16 04:24:00,
2013-03-15 23:25:00,66.0,59.7,30.00,South,171,16.0,17.0,80,0.00,,---,0.00,VWS V14.00,2013-03-16 04:25:00,
2013-03-15 23:26:00,66.1,59.8,30.00,South,178,12.0,16.0,80,0.00,,---,0.00,VWS V14.00,2013-03-16 04:26:00,
2013-03-15 23:27:00,66.0,59.7,30.00,South,178,17.0,17.0,80,0.00,,---,0.00,VWS V14.00,2013-03-16 04:27:00,
2013-03-15 23:28:00,66.0,59.7,30.00,South,184,11.0,17.0,80,0.00,,---,0.00,VWS V14.00,2013-03-16 04:28:00,
2013-03-15 23:29:00,66.0,59.7,30.00,South,173,17.0,17.0,80,0.00,,---,0.00,VWS V14.00,2013-03-16 04:29:00,
2013-03-15 23:30:00,66.1,59.8,30.00,South,169,16.0,19.0,80,0.00,,---,0.00,VWS V14.00,2013-03-16 04:30:00,
2013-03-15 23:31:00,66.1,59.8,30.00,South,173,17.0,18.0,80,0.00,,---,0.00,VWS V14.00,2013-03-16 04:31:00,
2013-03-15 23:32:00,66.1,59.8,30.00,South,180,12.0,17.0,80,0.00,,---,0.00,VWS V14.00,2013-03-16 04:32:00,
2013-03-15 23:33:00,66.1,59.8,30.00,South,177,16.0,19.0,80,0.00,,---,0.00,VWS V14.00,2013-03-16 04:33:00,
2013-03-15 23:34:00,66.1,59.8,30.00,South,175,13.0,17.0,80,0.00,,---,0.00,VWS V14.00,2013-03-16 04:34:00,
2013-03-15 23:35:00,66.1,59.8,30.00,South,182,16.0,16.0,80,0.00,,---,0.00,VWS V14.00,2013-03-16 04:35:00,
2013-03-15 23:36:00,66.1,59.8,30.00,South,177,16.0,17.0,80,0.00,,---,0.00,VWS V14.00,2013-03-16 04:36:00,
2013-03-15 23:37:00,66.1,59.8,30.00,South,171,11.0,16.0,80,0.00,,---,0.00,VWS V14.00,2013-03-16 04:37:00,
2013-03-15 23:38:00,66.1,59.8,30.00,South,170,13.0,16.0,80,0.00,,---,0.00,VWS V14.00,2013-03-16 04:38:00,
2013-03-15 23:39:00,66.1,59.8,30.00,SSE,166,10.0,18.0,80,0.00,,---,0.00,VWS V14.00,2013-03-16 04:39:00,
2013-03-15 23:40:00,66.0,59.7,30.00,South,171,12.0,16.0,80,0.00,,---,0.00,VWS V14.00,2013-03-16 04:40:00,
2013-03-15 23:41:00,66.0,59.7,30.00,South,170,16.0,18.0,80,0.00,,---,0.00,VWS V14.00,2013-03-16 04:41:00,
2013-03-15 23:42:00,66.0,59.7,30.00,South,186,11.0,18.0,80,0.00,,---,0.00,VWS V14.00,2013-03-16 04:42:00,
2013-03-15 23:43:00,66.0,59.7,30.00,South,176,13.0,16.0,80,0.00,,---,0.00,VWS V14.00,2013-03-16 04:43:00,
2013-03-15 23:44:00,65.9,59.6,30.00,South,178,11.0,16.0,80,0.00,,---,0.00,VWS V14.00,2013-03-16 04:44:00,
2013-03-15 23:45:00,65.9,59.6,30.00,South,177,13.0,17.0,80,0.00,,---,0.00,VWS V14.00,2013-03-16 04:45:00,
2013-03-15 23:46:00,65.9,59.6,30.00,South,178,15.0,18.0,80,0.00,,---,0.00,VWS V14.00,2013-03-16 04:46:00,
2013-03-15 23:47:00,65.9,59.6,30.00,South,182,11.0,16.0,80,0.00,,---,0.00,VWS V14.00,2013-03-16 04:47:00,
2013-03-15 23:48:00,65.8,59.5,30.00,South,178,11.0,17.0,80,0.00,,---,0.00,VWS V14.00,2013-03-16 04:48:00,
2013-03-15 23:49:00,65.9,59.6,30.00,South,180,13.0,18.0,80,0.00,,---,0.00,VWS V14.00,2013-03-16 04:49:00,
2013-03-15 23:50:00,65.8,59.5,30.00,South,178,17.0,17.0,80,0.00,,---,0.00,VWS V14.00,2013-03-16 04:50:00,
2013-03-15 23:51:00,65.9,59.6,30.00,South,176,12.0,17.0,80,0.00,,---,0.00,VWS V14.00,2013-03-16 04:51:00,
2013-03-15 23:52:00,65.8,59.5,30.00,South,177,12.0,16.0,80,0.00,,---,0.00,VWS V14.00,2013-03-16 04:52:00,
2013-03-15 23:53:00,65.8,59.5,30.00,South,169,13.0,17.0,80,0.00,,---,0.00,VWS V14.00,2013-03-16 04:53:00,
2013-03-15 23:54:00,65.9,59.6,30.00,SSE,167,14.0,20.0,80,0.00,,---,0.00,VWS V14.00,2013-03-16 04:54:00,
2013-03-15 23:55:00,65.8,59.5,29.99,South,186,11.0,16.0,80,0.00,,---,0.00,VWS V14.00,2013-03-16 04:55:00,
2013-03-15 23:56:00,65.9,59.6,29.99,South,179,13.0,14.0,80,0.00,,---,0.00,VWS V14.00,2013-03-16 04:56:00,
2013-03-15 23:57:00,65.8,59.5,30.00,South,178,12.0,17.0,80,0.00,,---,0.00,VWS V14.00,2013-03-16 04:57:00,
2013-03-15 23:58:00,65.8,59.5,29.99,South,184,11.0,16.0,80,0.00,,---,0.00,VWS V14.00,2013-03-16 04:58:00,